ANZ440 YSSY-NZQN

Flight info

Callsign ANZ440
Flight time N/A
Altitude 35000
Route OPTIC Y84 TONIM P766 MIKEG/N0451F370 P766 ADKOS
Aircraft A320/M-SDE3FGHIRWY/LB1

Departure

Time 2026-04-30 21:49
Airport Sydney Kingsford Smith International Airport (YSSY)

Arrival

Time N/A
Airport Queenstown Airport (NZQN)
Time Latitude Longitude Altitude Speed Heading
2026-04-30 20:37 -33.93934 151.16680 30 ft 0 kts 262°
2026-04-30 21:34 -33.93932 151.16703 30 ft 4 kts 260°
2026-04-30 21:34 -33.93914 151.16761 30 ft 4 kts 206°
2026-04-30 21:34 -33.93904 151.16764 30 ft 0 kts 164°
2026-04-30 21:38 -33.93907 151.16765 30 ft 1 kts 163°
2026-04-30 21:38 -33.93935 151.16776 30 ft 7 kts 163°
2026-04-30 21:38 -33.93982 151.16792 30 ft 0 kts 164°
2026-04-30 21:39 -33.93983 151.16792 30 ft 0 kts 164°
2026-04-30 21:42 -33.93990 151.16795 30 ft 3 kts 164°
2026-04-30 21:43 -33.94035 151.16810 30 ft 10 kts 165°
2026-04-30 21:43 -33.94122 151.16841 30 ft 16 kts 149°
2026-04-30 21:43 -33.94123 151.16969 29 ft 18 kts 74°
2026-04-30 21:43 -33.94088 151.17121 29 ft 19 kts 74°
2026-04-30 21:44 -33.94077 151.17235 29 ft 14 kts 116°
2026-04-30 21:44 -33.94172 151.17277 28 ft 16 kts 169°
2026-04-30 21:44 -33.94285 151.17306 30 ft 17 kts 168°
2026-04-30 21:44 -33.94407 151.17338 30 ft 19 kts 168°
2026-04-30 21:45 -33.94543 151.17373 30 ft 21 kts 168°
2026-04-30 21:45 -33.94691 151.17411 30 ft 23 kts 168°
2026-04-30 21:45 -33.94854 151.17453 30 ft 25 kts 168°
2026-04-30 21:45 -33.95031 151.17499 30 ft 27 kts 167°
2026-04-30 21:46 -33.95217 151.17548 29 ft 28 kts 168°
2026-04-30 21:46 -33.95404 151.17596 29 ft 26 kts 168°
2026-04-30 21:46 -33.95587 151.17644 30 ft 28 kts 168°
2026-04-30 21:46 -33.95781 151.17694 30 ft 29 kts 168°
2026-04-30 21:47 -33.95985 151.17748 30 ft 31 kts 168°
2026-04-30 21:47 -33.96186 151.17798 30 ft 25 kts 168°
2026-04-30 21:47 -33.96345 151.17840 30 ft 20 kts 168°
2026-04-30 21:47 -33.96436 151.17920 30 ft 15 kts 94°
2026-04-30 21:48 -33.96417 151.18035 30 ft 13 kts 68°
2026-04-30 21:48 -33.96351 151.18046 30 ft 10 kts 348°
2026-04-30 21:48 -33.96176 151.18000 27 ft 56 kts 347°
2026-04-30 21:48 -33.95594 151.17848 29 ft 114 kts 348°
2026-04-30 21:49 -33.94664 151.17607 32 ft 158 kts 348°
2026-04-30 21:49 -33.93582 151.17332 604 ft 153 kts 346°
2026-04-30 21:49 -33.92531 151.17069 1194 ft 156 kts 347°
2026-04-30 21:49 -33.91451 151.16771 1756 ft 165 kts 347°
2026-04-30 21:50 -33.90261 151.16484 2018 ft 182 kts 354°
2026-04-30 21:50 -33.88963 151.16773 2245 ft 203 kts 31°
2026-04-30 21:50 -33.87927 151.18014 2568 ft 223 kts 61°
2026-04-30 21:50 -33.87614 151.19932 2915 ft 250 kts 99°
2026-04-30 21:51 -33.88389 151.21852 3593 ft 262 kts 127°
2026-04-30 21:51 -33.89608 151.23502 4474 ft 265 kts 131°
2026-04-30 21:51 -33.90892 151.25104 5378 ft 268 kts 131°
2026-04-30 21:51 -33.92205 151.26722 6254 ft 271 kts 131°
2026-04-30 21:52 -33.93527 151.28367 7096 ft 274 kts 131°
2026-04-30 21:52 -33.94854 151.30043 7897 ft 278 kts 131°
2026-04-30 21:52 -33.96190 151.31753 8698 ft 282 kts 131°
2026-04-30 21:52 -33.97546 151.33497 9496 ft 287 kts 132°
2026-04-30 21:53 -33.98922 151.35273 10269 ft 293 kts 132°
2026-04-30 21:53 -34.00366 151.37137 10558 ft 316 kts 132°
2026-04-30 21:53 -34.01924 151.39145 10712 ft 340 kts 133°
2026-04-30 21:53 -34.03588 151.41293 10968 ft 357 kts 133°
2026-04-30 21:54 -34.05296 151.43504 11544 ft 363 kts 132°
2026-04-30 21:54 -34.07018 151.45732 12151 ft 364 kts 132°
2026-04-30 21:54 -34.07796 151.46738 12414 ft 366 kts 132°
2026-04-30 21:54 -34.09539 151.49007 13016 ft 371 kts 132°
2026-04-30 21:55 -34.11299 151.51295 13648 ft 375 kts 132°
2026-04-30 21:55 -34.13056 151.53579 14282 ft 378 kts 132°
2026-04-30 21:55 -34.14853 151.55904 14854 ft 379 kts 133°
2026-04-30 21:55 -34.16655 151.58241 15391 ft 383 kts 133°
2026-04-30 21:56 -34.18471 151.60603 15973 ft 384 kts 133°
2026-04-30 21:56 -34.20290 151.62974 16536 ft 385 kts 133°
2026-04-30 21:56 -34.22122 151.65361 17072 ft 388 kts 133°
2026-04-30 21:56 -34.23965 151.67763 17609 ft 392 kts 133°
2026-04-30 21:57 -34.25825 151.70191 18161 ft 394 kts 133°
2026-04-30 21:57 -34.27691 151.72623 18728 ft 396 kts 134°
2026-04-30 21:57 -34.29574 151.75079 19231 ft 399 kts 133°
2026-04-30 21:57 -34.31469 151.77551 19710 ft 402 kts 133°
2026-04-30 21:58 -34.33379 151.80045 20167 ft 405 kts 133°
2026-04-30 21:58 -34.34358 151.81325 20397 ft 408 kts 133°
2026-04-30 21:58 -34.36293 151.83855 20839 ft 411 kts 133°
2026-04-30 21:58 -34.38245 151.86411 21291 ft 414 kts 133°
2026-04-30 21:59 -34.40202 151.88988 21722 ft 417 kts 131°
2026-04-30 21:59 -34.42097 151.91604 22121 ft 420 kts 130°
2026-04-30 21:59 -34.44004 151.94361 22527 ft 423 kts 129°
2026-04-30 22:00 -34.47717 151.99895 23346 ft 429 kts 128°
2026-04-30 22:00 -34.51516 152.05529 24124 ft 434 kts 128°
2026-04-30 22:00 -34.53445 152.08358 24456 ft 437 kts 129°
2026-04-30 22:01 -34.55388 152.11197 24797 ft 438 kts 129°
2026-04-30 22:01 -34.57338 152.14049 25134 ft 440 kts 129°
2026-04-30 22:01 -34.59297 152.16920 25487 ft 442 kts 129°
2026-04-30 22:01 -34.61258 152.19794 25829 ft 443 kts 129°
2026-04-30 22:02 -34.63226 152.22685 26156 ft 445 kts 129°
2026-04-30 22:02 -34.65206 152.25589 26500 ft 447 kts 129°
2026-04-30 22:02 -34.67195 152.28506 26842 ft 449 kts 129°
2026-04-30 22:02 -34.69191 152.31440 27183 ft 452 kts 129°
2026-04-30 22:03 -34.71190 152.34389 27538 ft 453 kts 129°
2026-04-30 22:03 -34.73191 152.37345 27964 ft 452 kts 129°
2026-04-30 22:03 -34.75188 152.40298 28454 ft 450 kts 129°
2026-04-30 22:03 -34.77174 152.43232 28957 ft 449 kts 129°
2026-04-30 22:04 -34.79152 152.46157 29452 ft 447 kts 129°
2026-04-30 22:04 -34.81122 152.49073 29951 ft 445 kts 129°
2026-04-30 22:04 -34.85039 152.54872 30947 ft 440 kts 130°
2026-04-30 22:05 -34.86976 152.57745 31370 ft 438 kts 130°
2026-04-30 22:05 -34.88904 152.60609 31792 ft 437 kts 130°
2026-04-30 22:05 -34.90808 152.63438 32171 ft 437 kts 130°
2026-04-30 22:05 -34.92728 152.66292 32638 ft 434 kts 129°
2026-04-30 22:06 -34.94638 152.69140 33085 ft 432 kts 130°
2026-04-30 22:06 -34.98425 152.74792 33958 ft 429 kts 130°
2026-04-30 22:06 -35.00308 152.77604 34364 ft 428 kts 130°
2026-04-30 22:07 -35.02196 152.80416 34698 ft 428 kts 130°
2026-04-30 22:07 -35.04074 152.83216 35033 ft 427 kts 130°
2026-04-30 22:07 -35.05958 152.86029 35341 ft 426 kts 130°
2026-04-30 22:07 -35.07830 152.88833 35648 ft 426 kts 130°
2026-04-30 22:08 -35.09704 152.91641 35894 ft 427 kts 130°
2026-04-30 22:08 -35.11581 152.94457 36144 ft 428 kts 130°
2026-04-30 22:08 -35.13435 152.97239 36389 ft 428 kts 130°
2026-04-30 22:08 -35.15314 153.00063 36650 ft 428 kts 130°
2026-04-30 22:09 -35.17198 153.02891 36916 ft 429 kts 131°
2026-04-30 22:09 -35.19082 153.05717 37171 ft 428 kts 131°
2026-04-30 22:09 -35.20964 153.08545 37373 ft 429 kts 130°
2026-04-30 22:09 -35.22853 153.11390 37453 ft 433 kts 130°
2026-04-30 22:10 -35.26063 153.16228 37464 ft 440 kts 130°
2026-04-30 22:10 -35.29905 153.22035 37464 ft 442 kts 131°
2026-04-30 22:11 -35.35704 153.30830 37463 ft 443 kts 130°
2026-04-30 22:12 -35.39574 153.36701 37469 ft 443 kts 131°
2026-04-30 22:12 -35.43435 153.42550 37472 ft 437 kts 130°
2026-04-30 22:13 -35.47273 153.48379 37474 ft 441 kts 130°
2026-04-30 22:13 -35.51119 153.54255 37481 ft 441 kts 130°
2026-04-30 22:14 -35.54961 153.60131 37472 ft 441 kts 130°
2026-04-30 22:14 -35.58784 153.65985 37477 ft 442 kts 130°
2026-04-30 22:15 -35.62627 153.71889 37469 ft 441 kts 130°
2026-04-30 22:15 -35.66465 153.77771 37483 ft 441 kts 130°
2026-04-30 22:16 -35.70308 153.83664 37481 ft 441 kts 130°
2026-04-30 22:17 -35.77954 153.95466 37474 ft 441 kts 130°
2026-04-30 22:17 -35.83691 154.04332 37482 ft 441 kts 130°
2026-04-30 22:18 -35.89394 154.13153 37492 ft 440 kts 130°
2026-04-30 22:19 -35.95102 154.22038 37492 ft 440 kts 130°
2026-04-30 22:20 -36.00802 154.30922 37489 ft 440 kts 130°
2026-04-30 22:20 -36.07037 154.39175 37498 ft 438 kts 138°
2026-04-30 22:21 -36.11425 154.44384 37501 ft 438 kts 137°
2026-04-30 22:21 -36.15810 154.49600 37504 ft 437 kts 138°
2026-04-30 22:22 -36.20198 154.54822 37504 ft 437 kts 137°
2026-04-30 22:22 -36.24582 154.60051 37504 ft 438 kts 137°
2026-04-30 22:23 -36.28968 154.65284 37503 ft 437 kts 137°
2026-04-30 22:23 -36.33355 154.70513 37514 ft 437 kts 137°
2026-04-30 22:24 -36.37696 154.75714 37516 ft 436 kts 137°
2026-04-30 22:24 -36.42050 154.80937 37518 ft 435 kts 137°
2026-04-30 22:25 -36.46401 154.86162 37518 ft 435 kts 137°
2026-04-30 22:25 -36.50759 154.91399 37519 ft 435 kts 137°
2026-04-30 22:26 -36.57285 154.99270 37542 ft 435 kts 137°
2026-04-30 22:27 -36.61627 155.04518 37538 ft 434 kts 137°
2026-04-30 22:27 -36.68117 155.12377 37544 ft 433 kts 137°
2026-04-30 22:28 -36.74612 155.20247 37542 ft 434 kts 137°
2026-04-30 22:29 -36.83221 155.30726 37541 ft 434 kts 137°
2026-04-30 22:31 -36.98328 155.49184 37550 ft 434 kts 137°
2026-04-30 22:32 -37.09081 155.62424 37558 ft 433 kts 137°
2026-04-30 22:33 -37.19776 155.75609 37564 ft 432 kts 137°
2026-04-30 22:35 -37.30481 155.88869 37571 ft 432 kts 137°
2026-04-30 22:36 -37.41141 156.02160 37585 ft 431 kts 137°
2026-04-30 22:37 -37.49625 156.12747 37582 ft 431 kts 137°
2026-04-30 22:38 -37.58125 156.23389 37580 ft 431 kts 137°
2026-04-30 22:39 -37.64482 156.31395 37589 ft 429 kts 137°
2026-04-30 22:40 -37.77131 156.47345 37592 ft 429 kts 137°
2026-04-30 22:41 -37.87677 156.60724 37610 ft 429 kts 137°
2026-04-30 22:43 -38.00288 156.76770 37613 ft 428 kts 137°
2026-04-30 22:44 -38.08634 156.87466 37614 ft 428 kts 137°
2026-04-30 22:45 -38.21169 157.03578 37612 ft 427 kts 136°
2026-04-30 22:47 -38.33655 157.19689 37620 ft 427 kts 136°
2026-04-30 22:48 -38.41964 157.30483 37640 ft 426 kts 136°
2026-04-30 22:49 -38.54404 157.46686 37637 ft 425 kts 136°
2026-04-30 22:51 -38.66821 157.62956 37648 ft 426 kts 136°
2026-04-30 22:52 -38.72994 157.71070 37632 ft 426 kts 136°
2026-04-30 22:53 -38.81236 157.81950 37640 ft 425 kts 136°
2026-04-30 22:53 -38.87400 157.90121 37652 ft 425 kts 136°
2026-04-30 22:55 -38.97635 158.03710 37647 ft 424 kts 136°
2026-04-30 22:56 -39.05826 158.14631 37650 ft 424 kts 136°
2026-04-30 22:57 -39.16045 158.28314 37663 ft 423 kts 136°
2026-04-30 22:58 -39.24201 158.39288 37661 ft 424 kts 135°
2026-04-30 22:59 -39.36423 158.55803 37656 ft 424 kts 135°